TimeCDT,TemperatureF,Dew PointF,Humidity,Sea Level PressureIn,VisibilityMPH,Wind Direction,Wind SpeedMPH,Gust SpeedMPH,PrecipitationIn,Events,Conditions,WindDirDegrees,DateUTC
12:52 AM,43.0,21.0,42,30.25,10.0,East,4.6,-,N/A,,Clear,90,2012-09-22 05:52:00
1:52 AM,39.9,23.0,51,30.27,10.0,East,3.5,-,N/A,,Clear,80,2012-09-22 06:52:00
2:52 AM,39.0,23.0,53,30.30,10.0,ENE,4.6,-,N/A,,Clear,60,2012-09-22 07:52:00
3:52 AM,37.0,23.0,57,30.31,10.0,NE,5.8,-,N/A,,Clear,40,2012-09-22 08:52:00
4:52 AM,34.0,23.0,64,30.32,10.0,NNE,4.6,-,N/A,,Clear,30,2012-09-22 09:52:00
5:52 AM,30.9,23.0,72,30.34,10.0,NE,4.6,-,N/A,,Clear,40,2012-09-22 10:52:00
6:52 AM,30.0,24.1,79,30.35,10.0,NNE,4.6,-,N/A,,Clear,20,2012-09-22 11:52:00
7:52 AM,28.9,23.0,78,30.37,10.0,NNE,5.8,-,N/A,,Clear,20,2012-09-22 12:52:00
8:52 AM,36.0,25.0,64,30.37,10.0,Calm,Calm,-,N/A,,Clear,0,2012-09-22 13:52:00
9:52 AM,41.0,25.0,53,30.38,10.0,East,3.5,-,N/A,,Clear,90,2012-09-22 14:52:00
10:52 AM,46.0,24.1,42,30.38,10.0,SE,8.1,-,N/A,,Clear,140,2012-09-22 15:52:00
11:52 AM,50.0,23.0,35,30.37,10.0,Variable,5.8,-,N/A,,Clear,0,2012-09-22 16:52:00
12:52 PM,53.1,21.9,30,30.35,10.0,South,6.9,-,N/A,,Clear,170,2012-09-22 17:52:00
1:52 PM,55.0,19.0,24,30.33,10.0,Calm,Calm,-,N/A,,Clear,0,2012-09-22 18:52:00
2:52 PM,57.2,17.6,21,30.27,10.0,Calm,Calm,-,N/A,,Clear,0,2012-09-22 19:52:00
3:52 PM,59.0,12.9,16,30.29,10.0,South,4.6,-,N/A,,Clear,180,2012-09-22 20:52:00
4:52 PM,60.1,12.0,15,30.28,10.0,East,4.6,-,N/A,,Clear,100,2012-09-22 21:52:00
5:52 PM,60.1,12.0,15,30.27,10.0,SE,9.2,-,N/A,,Clear,140,2012-09-22 22:52:00
6:52 PM,59.0,16.0,19,30.26,10.0,East,9.2,-,N/A,,Clear,90,2012-09-22 23:52:00
7:52 PM,53.1,19.9,27,30.27,10.0,ENE,8.1,-,N/A,,Clear,70,2012-09-23 00:52:00
8:52 PM,48.0,21.9,36,30.28,10.0,Variable,3.5,-,N/A,,Clear,0,2012-09-23 01:52:00
9:52 PM,46.9,21.0,36,30.28,10.0,East,4.6,-,N/A,,Clear,90,2012-09-23 02:52:00
10:52 PM,46.0,19.0,34,30.28,10.0,Calm,Calm,-,N/A,,Clear,0,2012-09-23 03:52:00
11:52 PM,45.0,21.0,39,30.27,10.0,East,3.5,-,N/A,,Clear,90,2012-09-23 04:52:00